Location: Cisewo
(53.3833°N, 14.9000°E)
Time: 11:13:50
(UTC+00:00)

Meteor 2-6 Rocket - Pass Details

Date: 18 April 2021
Orbit: 806 x 914 km, 81.3° (Epoch: 14 May)

Event Time Altitude Azimuth Distance (km) Brightness Sun altitude
Exits shadow 23:48:07 66° 217° (SW) 885 4.0 -24.6°
Maximum altitude 23:48:52 80° 283° (WNW) 829 4.0 -24.6°
Drops below altitude 10° 23:54:18 10° 12° (NNE) 2,403 7.6 -24.4°
Sets 23:56:42 0° 14° (NNE) 3,341 8.7 -24.3°
